Tracking 20093 objects as of 14-Dec-2019
HD Live streaming from Space Station
objects crossing your sky now

COSMOS 2251 DEB

Track COSMOS 2251 DEB now!
10-day predictions


NORAD ID: 37133
Int'l Code: 1993-036BHF
Perigee: 717.7 km
Apogee: 1,156.2 km
Inclination: 74.0 °
Period: 103.6 minutes
Semi major axis: 7307 km
RCS: 0.0013 m2 (small)
Launch date: June 16, 1993
Source: Commonwealth of Independent States (former USSR) (CIS)
Launch site: PLESETSK MISSILE AND SPACE COMPLEX (PKMTR)

Note: This is SATELLITE DEBRIS
aabbcc
Your satellite tracking list
Your tracking list is empty




NASA's NSSDC Master Catalog

Two Line Element Set (TLE):
1 37133U 93036BHF 19347.13582295  .00000864  00000-0  50383-3 0  9997
2 37133  74.0074 248.0422 0300011 186.5228 173.1960 13.89654563487309
Source of the keplerian elements: AFSPC